User: anonymous   Login
Location: Bourg-d�Oueil
(42.8588°N, 0.4991°E)
Time: 09:50:23
(UTC+00:00)
Language:

Celestis-02/Orion 38 - Orbit

View from above orbital plane
View from above orbital plane
View from above satellite
View from above satellite

Ground track
Ground track

The orbit data is extracted from the following two-line orbital elements,

1 25160U 98007D   21266.09232172 -.00000081  00000-0  21642-4 0  9990
2 25160 107.9829  88.5322 0063473 209.0533 299.9348 14.21575085225084
Epoch (UTC): 23 September 2021 02:12:56
Eccentricity: 0.0063473
inclination: 107.9829°
perigee height: 774 km
apogee height: 866 km
right ascension of ascending node: 88.5322°
argument of perigee: 209.0533°
revolutions per day: 14.21575085
mean anomaly at epoch: 299.9348°
orbit number at epoch: 22508

The dashed part of the orbit path shows where the satellite is in the earth's shadow,  

DLR